Terminal Aerodrome Forecast
Issued by NWS Louisville, KY

Home | Current Version | Previous Version | Text Only | Print | Product List | Glossary On
Versions: 1 2 3 4 5 6 7 8 9 10 11 12 13 14 15 16 17 18 19 20 21 22 23 24
000
FTUS43 KLMK 020800 AAA
TAFBWG
TAF AMD
KBWG 020841Z 0209/0306 19007KT 3SM -TSRA SCT009 BKN035CB
      TEMPO 0209/0213 1SM TSRA BR BKN009CB
     FM021500 20008KT P6SM VCTS SCT025CB BKN050
     FM022100 22010KT P6SM SCT025 BKN150=

USA.gov is the U.S. government's official web portal to all federal, state and local government web resources and services.